Volver al catálogo

STARLINK-34657

ActivoComunicacionesVLEO
NORAD 64775·PAYLOAD·🇺🇸 United States

Lanzado Jul 8, 2025 desde Cape Canaveral Space Force Station

Loading…

Próximos Pases (próximas 24 horas)

TLE

ActualizadoSource: CelesTrak SupGP

Época: Sep 15, 2026, 03:03 UTC

1 64775C 25147W   26258.12756944 -.00028899  00000+0 -85407-3 0  2581
2 64775  53.1571  78.8707 0001198  89.9834 188.7679 15.34396450    17

Sigue STARLINK-34657 en tiempo real con AllMySat

Download on the App Store